Regional Weather Roundup
Issued by NWS Jackson, KY

Home | Current Version | Previous Version | Graphics & Text | Print | Product List | Glossary On
Versions: 1 2 3 4 5 6 7 8 9 10 11 12 13 14 15 16 17 18 19 20 21 22 23 24 25 26 27 28 29 30 31 32 33 34 35 36 37 38 39 40 41 42 43 44 45 46 47 48 49 50
396
ASUS43 KJKL 250710
RWRJKL

EAST KENTUCKY HOURLY WEATHER ROUNDUP
NATIONAL WEATHER SERVICE JACKSON KY
300 AM EDT SUN SEP 25 2016

NOTE: "FAIR" INDICATES FEW OR NO CLOUDS BELOW 12,000 FEET WITH
NO SIGNIFICANT WEATHER AND/OR OBSTRUCTIONS TO VISIBILITY.

* THESE REPORTS ARE NOT UNDER NWS QUALITY CONTROL AND MAY NOT
  REPORT WEATHER SUCH AS PRECIPITATION AND FOG.

KYZ079-080-083-085-087-088-110-112-115-119-120-250800
...EASTERN KENTUCKY...

CITY           SKY/WX    TMP DP  RH WIND       PRES   REMARKS
JACKSON        CLEAR     69  64  84 CALM      30.13S
LONDON         CLEAR     66  62  87 CALM      30.12S
SOMERSET*      CLEAR     64  64 100 CALM      30.12S
MONTICELLO*    CLEAR     61  61 100 CALM      30.12S FOG
WILLIAMSBURG*  SUNNY     64  64 100 CALM      30.12S
MIDDLESBORO*   CLEAR     63  63 100 CALM      30.14S
HARLAN APT*    MOSUNNY   63  61  94 CALM      30.15S
PIKE CO APT*     N/A     68  66  96 CALM      30.13S
BIG SANDY APT* SUNNY     65  65 100 NE5       30.13
MOREHEAD APT*  PTSUNNY   70  61  73 CALM      30.15R
ASHLAND*       CLEAR     66  63  88 CALM      30.11S
$$

KYZ035-036-041-042-044-050-067-078-099-250800
...CENTRAL KENTUCKY...

CITY           SKY/WX    TMP DP  RH WIND       PRES   REMARKS
MT STERLING*   CLEAR     70  64  83 E5        30.14S
FLEMING/MASON* CLEAR     66  63  90 NE6       30.15S
DANVILLE*      CLEAR     64  63  94 CALM      30.12S
LEXINGTON      CLEAR     72  64  76 E6        30.12S
FRANKFORT      PTCLDY    71  64  78 CALM      30.11S
LOUISVILLE     PTCLDY    74  66  76 N5        30.10R
LEBANON*         N/A     72  66  83 CALM      30.11R
GLASGOW*       CLEAR     66  66 100 CALM      30.09R FOG
BOWLING GREEN  CLEAR     66  64  93 CALM      30.09R FOG
$$

KYZ091>093-OHZ055-061-077-WVZ005-015-034-035-042-250800
...SOUTHERN OHIO/WEST VIRGINIA...

CITY           SKY/WX    TMP DP  RH WIND       PRES   REMARKS
COVINGTON      CLEAR     70  65  84 NE7       30.14S
COLUMBUS       CLEAR     59  54  83 E5        30.18R
DAYTON         CLEAR     59  54  83 NE5       30.19R
WILMINGTON     CLEAR     60  57  89 NE8       30.16S
HUNTINGTON     CLEAR     68  62  81 N5        30.12S
CHARLESTON     CLEAR     65  63  93 CALM      30.12S
PINEVILLE*     CLEAR     62  59  89 MISG      30.20S FOG
BECKLEY        CLEAR     62  60  93 CALM      30.18S FOG
BLUEFIELD      CLEAR     65  60  84 CALM      30.20F
LOGAN CO APT*    N/A     68  64  88 CALM      30.13F
$$

VAZ002-007-008-TNZ017-027-036-066-071-250800
...SOUTHWEST VIRGINIA/EAST TENNESSEE...

CITY           SKY/WX    TMP DP  RH WIND       PRES   REMARKS
WISE*          CLEAR     64  61  88 CALM      30.21S
JONESVILLE*    PTSUNNY   63  63 100 CALM      30.15F
ABINGDON*      CLEAR     67  62  84 E7        30.16F
BRISTOL        CLEAR     62  61  96 N3        30.13S
MORRISTOWN*    SUNNY     70  63  78 CALM      30.10S
SEVIERVILLE*   SUNNY     64  61  88 CALM      30.09S
KNOXVILLE      CLEAR     70  63  78 CALM      30.08R
OAK RIDGE      CLEAR     69  65  86 CALM      30.10S
CROSSVILLE     CLEAR     64  62  93 CALM      30.14S
NASHVILLE      CLEAR     68  64  87 CALM      30.08R
$$

...KEY TO REMARKS...
VSB - VISIBILITY IN MILES
WCI - WIND CHILL INDEX
HX  - HEAT INDEX

$$




USA.gov is the U.S. government's official web portal to all federal, state and local government web resources and services.